This demonstration page uses our WeatherBlox Daily Observations layout. Learn more.

Left ArrowRight Arrow

Hourly Observations for September 25, 2020

Temp ( °F °C ) Dew Point ( °F °C ) Humidity (%) Winds ( mph kmh ) Pressure ( in mb ) Visibility ( mi km ) Precip ( " mm )
12:52 am 00:52 Mostly Clear 68 20 63 17.2 84 84 SSE 9 15 29.76 1008 10 16 0.00 0.00
1:52 am 01:52 Clear 67 19.4 63 17.2 87 87 SSE 9 15 29.76 1008 10 16 0.00 0.00
2:52 am 02:52 Clear 64 17.8 62 16.7 93 93 SSE 8 13 29.76 1008 10 16 0.00 0.00
3:52 am 03:52 Clear 66 18.9 62 16.7 87 87 SSE 9 15 29.75 1008 10 16 0.00 0.00
4:52 am 04:52 Clear 66 18.9 62 16.7 87 87 SSE 12 19 29.75 1008 10 16 0.00 0.00
5:52 am 05:52 Clear 65 18.3 62 16.7 90 90 SSE 15 24 29.75 1008 10 16 0.00 0.00
6:52 am 06:52 Clear 65 18.3 61 16.1 87 87 S 14 22 29.76 1008 10 16 0.00 0.00
7:52 am 07:52 Mostly Sunny 65 18.3 61 16.1 87 87 S 13 20 29.77 1008 10 16 0.00 0.00
8:52 am 08:52 Mostly Sunny 67 19.4 62 16.7 84 84 S 15 24 29.77 1008 10 16 0.00 0.00
9:52 am 09:52 Mostly Sunny 70 21.1 62 16.7 76 76 S 13 20 29.78 1008 10 16 0.00 0.00
10:52 am 10:52 Mostly Sunny 73 22.8 63 17.2 71 71 S 9 15 29.77 1008 10 16 0.00 0.00
11:52 am 11:52 Mostly Sunny 77 25 64 17.8 64 64 S 13 20 29.75 1007 10 16 0.00 0.00
12:52 pm 12:52 Mostly Cloudy 82 27.8 64 17.8 55 55 S 16 26 29.72 1006 10 16 0.00 0.00
1:52 pm 13:52 Mostly Cloudy 84 28.9 65 18.3 53 53 S 13 20 29.70 1006 10 16 0.00 0.00
2:52 pm 14:52 Mostly Cloudy 87 30.6 65 18.3 48 48 SSE 10 17 29.68 1005 10 16 0.00 0.00
3:52 pm 15:52 Cloudy 90 32.2 63 17.2 41 41 S 10 17 29.67 1005 10 16 0.00 0.00
4:52 pm 16:52 Cloudy 91 32.8 61 16.1 37 37 SSW 10 17 29.66 1005 10 16 0.00 0.00
5:52 pm 17:52 Cloudy 90 32.2 62 16.7 39 39 SW 5 7 29.66 1005 10 16 0.00 0.00
6:52 pm 18:52 Cloudy 85 29.4 64 17.8 50 50 N 3 6 29.68 1005 10 16 0.00 0.00
7:52 pm 19:52 Cloudy 75 23.9 67 19.4 76 76 Calm 29.70 1006 10 16 0.00 0.00
8:52 pm 20:52 Cloudy 70 21.1 66 18.9 87 87 NNW 7 11 29.72 1006 10 16 0.00 0.00
9:52 pm 21:52 Mostly Cloudy 70 21.1 63 17.2 79 79 NNW 3 6 29.72 1006 10 16 0.00 0.00
10:52 pm 22:52 Partly Cloudy 69 20.6 60 15.6 73 73 W 3 6 29.72 1006 10 16 0.00 0.00
11:52 pm 23:52 Clear 67 19.4 59 15 76 76 SSE 5 7 29.70 1006 10 16 0.00 0.00

Powered by AerisWeather